Weather History for PAWI - February, 2013

Change the Weather History Date:

Friday, February 1, 2013

  Actual Average (PABR) Record (PABR)
Temperature  
Mean Temperature -20 °F -14 °F  
Max Temperature -14 °F -8 °F 26 °F (2014)
Min Temperature -27 °F -20 °F -55 °F (1919)
Degree Days  
Heating Degree Days 86 79  
Month to date heating degree days 79  
Since 1 July heating degree days 10715  
Cooling Degree Days 0    
Month to date cooling degree days  
Year to date cooling degree days  
Moisture  
Dew Point -26 °F    
Average Humidity 72    
Maximum Humidity 75    
Minimum Humidity 69    
Precipitation  
Precipitation 0.00 in 0.00 in 0.17 in (1957)
Month to date precipitation 0.00  
Year to date precipitation 0.13  
Snow  
Snow 0.00 in 0.10 in 1.80 in (1931)
Month to date snowfall 0.1  
Since 1 July snowfall 26.5  
Snow Depth -    
Sea Level Pressure  
Sea Level Pressure 30.41 in    
Wind  
Wind Speed 11 mph (NE)    
Max Wind Speed 15 mph    
Max Gust Speed -    
Visibility 10 miles    
Events      
T = Trace of Precipitation, MM = Missing Value Source: NWS Daily Summary

Daily Weather History Graph

Daily Weather History Graph

Search for Another Location

Airport or City:

Trip Planner

Search our weather history database for the weather conditions in past years. The results will help you decide how hot, cold, wet, or windy it might be!

Date:

Astronomy

Feb. 01, 2013 Rise Set
Actual Time 11:32 AM AKST 4:15 PM AKST
Civil Twilight 10:02 AM AKST 5:45 PM AKST
Nautical Twilight 8:41 AM AKST 7:06 PM AKST
Astronomical Twilight 7:28 AM AKST 8:20 PM AKST
Moon 1:34 AM AKST (2/1) 9:54 AM AKST (2/1)
Length of Visible Light 7h 43m
Length of Day
4h 43m
Waning Gibbous, 69% of the Moon is Illuminated
Feb 1
Waning Gibbous
Feb 3
Last Quarter
Feb 9
New
Feb 17
First Quarter
Feb 25
Full

Hourly Weather History & Observations

Time (AKST) Temp. Windchill Dew Point Humidity Pressure Visibility Wind Dir Wind Speed Gust Speed Precip Events Conditions
1:53 AM -16.1 °F -36.2 °F -22.0 °F 74% 30.35 in 10.0 mi ENE 10.4 mph - N/A   Overcast
3:53 AM -16.1 °F -36.2 °F -22.0 °F 74% 30.36 in 10.0 mi NE 10.4 mph - N/A   Overcast
4:53 AM -15.0 °F -34.8 °F -20.9 °F 75% 30.37 in 10.0 mi NE 10.4 mph - N/A   Overcast
5:53 AM -14.1 °F -33.7 °F -20.9 °F 71% 30.38 in 10.0 mi NE 10.4 mph - N/A   Overcast
6:53 AM -14.1 °F -32.6 °F -20.9 °F 71% 30.39 in 10.0 mi NE 9.2 mph - N/A   Overcast
7:53 AM -15.0 °F -34.8 °F -20.9 °F 75% 30.41 in 10.0 mi NE 10.4 mph - N/A   Overcast
8:53 AM -15.0 °F -33.7 °F -20.9 °F 75% 30.41 in 5.0 mi ENE 9.2 mph - N/A   Overcast
9:53 AM -15.0 °F -35.9 °F -20.9 °F 75% 30.41 in 8.0 mi NE 11.5 mph - N/A   Mostly Cloudy
10:53 AM -16.1 °F -35.0 °F -22.0 °F 74% 30.43 in 10.0 mi ENE 9.2 mph - N/A   Overcast
11:53 AM -17.0 °F -38.4 °F -24.0 °F 70% 30.44 in 10.0 mi ENE 11.5 mph - N/A   Overcast
12:53 PM -18.9 °F -39.8 °F -25.1 °F 74% 30.44 in 10.0 mi ENE 10.4 mph - N/A   Scattered Clouds
1:53 PM -20.9 °F -41.0 °F -27.0 °F 73% 30.45 in 10.0 mi NE 9.2 mph - N/A   Clear
2:53 PM -20.9 °F -42.2 °F -27.9 °F 70% 30.45 in 10.0 mi NE 10.4 mph - N/A   Clear
3:53 PM -23.1 °F -46.0 °F -29.0 °F 74% 30.44 in 10.0 mi NE 11.5 mph - N/A   Clear
4:53 PM -24.0 °F -47.2 °F -31.0 °F 70% 30.43 in 10.0 mi ENE 11.5 mph - N/A   Clear
6:53 PM -24.0 °F -50.1 °F -31.0 °F 70% 30.42 in 10.0 mi ENE 15.0 mph - N/A   Clear
7:53 PM -25.1 °F -47.4 °F -32.1 °F 70% 30.41 in 10.0 mi ENE 10.4 mph - N/A   Clear
8:53 PM -25.1 °F -51.5 °F -32.1 °F 70% 30.40 in 10.0 mi ENE 15.0 mph - N/A   Clear
9:53 PM -26.0 °F -51.7 °F -33.0 °F 69% 30.40 in 10.0 mi ENE 13.8 mph - N/A   Clear
10:53 PM -27.0 °F -53.1 °F -34.1 °F 69% 30.39 in 10.0 mi NE 13.8 mph - N/A   Clear
11:53 PM -26.0 °F -51.7 °F -33.0 °F 69% 30.37 in 7.0 mi NE 13.8 mph - N/A   Clear